Location: Petruro
(41.0333°N, 14.7833°E)
Time: 14:16:22
(UTC+00:00)

Cosmos 44 - Pass Details

Date: 20 June 2021
Orbit: 572 x 790 km, 65.1° (Epoch: 30 July)

Event Time Altitude Azimuth Distance (km) Brightness Sun altitude
Exits shadow 02:33:32 - 202° (SSW) 2,377 5.5 -9.1°
Reaches altitude 10° 02:33:52 10° 201° (SSW) 2,248 5.4 -9.0°
Maximum altitude 02:39:02 70° 119° (ESE) 817 3.7 -8.3°
Drops below altitude 10° 02:44:25 10° 36° (NE) 2,349 7.6 -7.5°
Sets 02:46:53 0° 35° (NE) 3,289 8.6 -7.2°
